Regional Weather Roundup
Issued by NWS Northern Indiana

Home | Current Version | Previous Version | Graphics & Text | Print | Product List | Glossary On
Versions: 1 2 3 4 5 6 7 8 9 10 11 12 13 14 15 16 17 18 19 20 21 22 23 24 25 26 27 28 29 30 31 32 33 34 35 36 37 38 39 40 41 42 43 44 45 46 47 48 49 50
000
ASUS43 KIWX 200200
RWRIWX

KIWX WEATHER ROUNDUP
NATIONAL WEATHER SERVICE NORTHERN INDIANA
1000 PM EDT THU OCT 19 2017

NOTE: "FAIR" INDICATES FEW OR NO CLOUDS BELOW 12,000 FEET WITH NO
SIGNIFICANT WEATHER AND/OR OBSTRUCTIONS TO VISIBILITY.

* THESE STATIONS ARE NOT UNDER NWS QUALITY CONTROL. THEY ALSO MAY NOT
  REPORT WEATHER SUCH AS PRECIPITATION OR FOG.

INZ001>027-200300-
NORTHERN INDIANA

CITY           SKY/WX    TMP DP  RH WIND       PRES   REMARKS
GARY*          PTCLDY    48  45  87 SE5       30.18S
SOUTH BEND     CLEAR     46  39  76 NE3       30.20F
GOSHEN         CLEAR     48  37  65 CALM      30.20S
MONTICELLO*    CLOUDY    56  47  72 CALM      30.18S
FORT WAYNE     PTCLDY    53  45  74 CALM      30.20S
PERU/GRISSOM   CLOUDY    55  50  85 CALM      30.19S

$$
INZ028>050-200300-
CENTRAL INDIANA

CITY           SKY/WX    TMP DP  RH WIND       PRES   REMARKS
LAFAYETTE      CLEAR     55  53  93 CALM      30.18S
KOKOMO*        CLOUDY    53  49  86 CALM      30.20S
MUNCIE*        CLEAR     53  49  86 SW3       30.21S
INDIANAPOLIS   CLEAR     62  51  67 SW5       30.21S

$$
MIZ043>046-050>051-056>058-064>065-071>073-077>080-200300-
SOUTHWEST LOWER MICHIGAN

CITY           SKY/WX    TMP DP  RH WIND       PRES   REMARKS
BATTLE CREEK   CLEAR     50  36  58 SW3       30.20R
BENTON HARBOR  CLEAR     44  40  85 CALM      30.19S
COLDWATER*     CLEAR     46  33  59 CALM      30.19S
HILLSDALE*     CLEAR     50  28  43 W3        30.19R
HOLLAND        CLEAR     48  42  80 S3        30.18F
GRAND RAPIDS   PTCLDY    51  38  60 SW6       30.18S
KALAMAZOO      CLEAR     50  33  52 CALM      30.20R
STURGIS*       CLEAR     46  37  71 CALM      30.19S
THREE RIVERS*  FAIR      47  38  68 CALM      30.21R

$$
OHZ001>008-015>018-024>025-200300-
NORTHWEST OHIO

CITY           SKY/WX    TMP DP  RH WIND       PRES   REMARKS
DEFIANCE       CLEAR     49  41  74 CALM      30.19R
FINDLAY        CLEAR     57  47  69 W5        30.18R
TOLEDO EXPRESS CLEAR     52  43  71 CALM      30.18R
TOLEDO METCALF CLEAR     54  41  61 CALM      30.18R
LIMA           CLEAR     51  49  92 W3        30.19S

$$
AND FOR LAKE MICHIGAN COASTAL AND OPEN LAKE BUOY OBSERVATIONS

STATION/POSITION TEMP    WIND        PRES    VSBY  WAVE
                 AIR SEA DIR/SP/G                  HT/PER
                 (F)     (DEG/KT/KT) (MB)    (MI)  (FT/S)
CALUMET HARBOR    59     110/  2/  4 1020.9F
MICHIGAN CITY     55     120/  7/  7   N/A
BURNS HARBOR      63     150/  3/  6 1022.0F
SAINT JOSEPH      54     180/  3/  5 1023.0
SOUTH LAKE BUOY   61 61  200/ 12/ 14 1021.5          1/ 3
4 MI NW BRIDGMAN  57 59  170/  4/  6 1022.5F         1/ 4
MICHIGAN CITY     58 58  140/  6/  6   N/A           1/ 4

$$
&&




USA.gov is the U.S. government's official web portal to all federal, state and local government web resources and services.